Time,TemperatureF,DewpointF,PressureIn,WindDirection,WindDirectionDegrees,WindSpeedMPH,WindSpeedGustMPH,Humidity,HourlyPrecipIn,Conditions,Clouds,dailyrainin,SoftwareType,DateUTC
2013-07-10 00:02:00,74.0,69.0,29.80,WNW,285,5.0,8.0,85,0.00,,,0.42,,2013-07-10 05:02:00,
2013-07-10 00:12:00,74.0,69.0,29.81,NNW,327,4.0,11.0,85,0.00,,,0.42,,2013-07-10 05:12:00,
2013-07-10 00:22:00,74.0,68.0,29.81,WNW,288,2.0,11.0,83,0.00,,,0.42,,2013-07-10 05:22:00,
2013-07-10 00:32:00,73.0,68.0,29.81,West,277,2.0,7.0,83,0.00,,,0.42,,2013-07-10 05:32:00,
2013-07-10 00:42:00,73.0,68.0,29.81,West,277,1.0,7.0,83,0.00,,,0.42,,2013-07-10 05:42:00,
2013-07-10 00:52:00,73.0,68.0,29.81,West,281,3.0,6.0,85,0.00,,,0.42,,2013-07-10 05:52:00,
2013-07-10 01:01:00,73.0,69.0,29.80,West,259,3.0,8.0,86,0.00,,,0.42,,2013-07-10 06:01:00,
2013-07-10 01:11:00,73.0,69.0,29.80,West,265,2.0,6.0,87,0.00,,,0.42,,2013-07-10 06:11:00,
2013-07-10 01:22:00,72.0,68.0,29.80,WNW,290,1.0,6.0,87,0.00,,,0.42,,2013-07-10 06:22:00,
2013-07-10 01:32:00,73.0,69.0,29.80,WNW,299,5.0,8.0,88,0.00,,,0.42,,2013-07-10 06:32:00,
2013-07-10 01:42:00,73.0,69.0,29.80,NW,320,5.0,11.0,88,0.00,,,0.42,,2013-07-10 06:42:00,
2013-07-10 01:52:00,73.0,69.0,29.81,WNW,293,6.0,13.0,87,0.00,,,0.42,,2013-07-10 06:52:00,
2013-07-10 02:01:00,73.0,69.0,29.81,WNW,286,5.0,11.0,87,0.00,,,0.42,,2013-07-10 07:01:00,
2013-07-10 02:11:00,73.0,69.0,29.81,WNW,292,5.0,10.0,88,0.00,,,0.42,,2013-07-10 07:11:00,
2013-07-10 02:22:00,72.0,68.0,29.82,West,269,5.0,12.0,88,0.00,,,0.42,,2013-07-10 07:22:00,
2013-07-10 02:33:00,72.0,68.0,29.82,West,265,7.0,13.0,88,0.00,,,0.42,,2013-07-10 07:33:00,
2013-07-10 02:43:00,71.0,67.0,29.82,NW,306,5.0,13.0,88,0.00,,,0.42,,2013-07-10 07:43:00,
2013-07-10 02:53:00,71.0,67.0,29.82,NW,319,4.0,13.0,88,0.00,,,0.42,,2013-07-10 07:53:00,
2013-07-10 03:01:00,70.0,66.0,29.82,NNW,340,5.0,10.0,88,0.00,,,0.42,,2013-07-10 08:01:00,
2013-07-10 03:11:00,70.0,66.0,29.83,WNW,283,5.0,10.0,88,0.00,,,0.42,,2013-07-10 08:11:00,
2013-07-10 03:23:00,70.0,67.0,29.83,WNW,296,6.0,12.0,89,0.00,,,0.42,,2013-07-10 08:23:00,
2013-07-10 03:33:00,70.0,66.0,29.83,NNW,328,6.0,10.0,88,0.00,,,0.42,,2013-07-10 08:33:00,
2013-07-10 03:42:00,69.0,65.0,29.84,WNW,300,3.0,8.0,86,0.00,,,0.42,,2013-07-10 08:42:00,
2013-07-10 03:53:00,68.0,63.0,29.84,North,355,4.0,9.0,85,0.00,,,0.42,,2013-07-10 08:53:00,
2013-07-10 04:02:00,68.0,63.0,29.84,NW,309,5.0,9.0,85,0.00,,,0.42,,2013-07-10 09:02:00,
2013-07-10 04:12:00,67.0,62.0,29.85,WNW,294,4.0,9.0,85,0.00,,,0.42,,2013-07-10 09:12:00,
2013-07-10 04:22:00,67.0,63.0,29.85,NW,309,4.0,9.0,86,0.00,,,0.42,,2013-07-10 09:22:00,
2013-07-10 04:32:00,67.0,63.0,29.86,NW,316,6.0,13.0,86,0.00,,,0.42,,2013-07-10 09:32:00,
2013-07-10 04:42:00,67.0,62.0,29.86,NW,309,5.0,10.0,85,0.00,,,0.42,,2013-07-10 09:42:00,
2013-07-10 04:52:00,67.0,62.0,29.86,WNW,286,5.0,10.0,84,0.00,,,0.42,,2013-07-10 09:52:00,
2013-07-10 05:01:00,66.0,61.0,29.86,West,275,4.0,10.0,85,0.00,,,0.42,,2013-07-10 10:01:00,
2013-07-10 05:13:00,66.0,61.0,29.87,West,275,3.0,9.0,85,0.00,,,0.42,,2013-07-10 10:13:00,
2013-07-10 05:23:00,66.0,62.0,29.87,NW,312,2.0,8.0,86,0.00,,,0.42,,2013-07-10 10:23:00,
2013-07-10 05:32:00,65.0,61.0,29.88,NW,322,4.0,9.0,86,0.00,,,0.42,,2013-07-10 10:32:00,
2013-07-10 05:50:00,-999.0,-99.9,29.88,NW,315,2.0,8.0,-999,-99.99,,,-99.99,,2013-07-10 10:50:00,
2013-07-10 06:00:00,-999.0,-99.9,29.88,WNW,294,2.0,6.0,-999,-99.99,,,-99.99,,2013-07-10 11:00:00,
2013-07-10 06:11:00,64.0,61.0,29.89,NNW,346,5.0,11.0,89,0.00,,,0.42,,2013-07-10 11:11:00,
2013-07-10 06:23:00,64.0,60.0,29.90,WNW,284,4.0,10.0,88,0.00,,,0.42,,2013-07-10 11:23:00,
2013-07-10 06:33:00,64.0,60.0,29.90,NW,317,6.0,13.0,87,0.00,,,0.42,,2013-07-10 11:33:00,
2013-07-10 06:43:00,64.0,59.0,29.90,WNW,298,7.0,15.0,83,0.00,,,0.42,,2013-07-10 11:43:00,
2013-07-10 06:52:00,64.0,58.0,29.91,NW,305,8.0,16.0,82,0.00,,,0.42,,2013-07-10 11:52:00,
2013-07-10 07:02:00,64.0,58.0,29.91,WNW,290,5.0,13.0,81,0.00,,,0.42,,2013-07-10 12:02:00,
2013-07-10 07:11:00,64.0,58.0,29.91,NW,321,7.0,12.0,81,0.00,,,0.42,,2013-07-10 12:11:00,
2013-07-10 07:22:00,64.0,58.0,29.91,WNW,292,8.0,17.0,80,0.00,,,0.42,,2013-07-10 12:22:00,
2013-07-10 07:33:00,64.0,58.0,29.91,West,270,4.0,12.0,81,0.00,,,0.42,,2013-07-10 12:33:00,
2013-07-10 07:43:00,64.0,58.0,29.91,NW,304,6.0,12.0,80,0.00,,,0.42,,2013-07-10 12:43:00,
2013-07-10 07:53:00,64.0,57.0,29.91,NNW,335,6.0,13.0,79,0.00,,,0.42,,2013-07-10 12:53:00,
2013-07-10 08:01:00,64.0,57.0,29.91,North,355,6.0,14.0,79,0.00,,,0.42,,2013-07-10 13:01:00,
2013-07-10 08:11:00,65.0,58.0,29.92,NW,316,5.0,19.0,79,0.00,,,0.42,,2013-07-10 13:11:00,
2013-07-10 08:21:00,65.0,57.0,29.92,WNW,288,8.0,18.0,76,0.00,,,0.42,,2013-07-10 13:21:00,
2013-07-10 08:32:00,65.0,57.0,29.92,West,271,8.0,16.0,75,0.00,,,0.42,,2013-07-10 13:32:00,
2013-07-10 08:43:00,65.0,57.0,29.93,WNW,292,5.0,13.0,75,0.00,,,0.42,,2013-07-10 13:43:00,
2013-07-10 08:52:00,66.0,57.0,29.93,WNW,299,8.0,15.0,72,0.00,,,0.42,,2013-07-10 13:52:00,
2013-07-10 09:01:00,66.0,57.0,29.93,North,355,5.0,13.0,74,0.00,,,0.42,,2013-07-10 14:01:00,
2013-07-10 09:11:00,66.0,56.0,29.92,West,273,7.0,13.0,71,0.00,,,0.42,,2013-07-10 14:11:00,
2013-07-10 09:22:00,66.0,56.0,29.93,North,11,6.0,15.0,70,0.00,,,0.42,,2013-07-10 14:22:00,
2013-07-10 09:33:00,67.0,56.0,29.93,NNW,345,8.0,15.0,69,0.00,,,0.42,,2013-07-10 14:33:00,
2013-07-10 09:43:00,67.0,57.0,29.93,NNW,339,7.0,16.0,70,0.00,,,0.42,,2013-07-10 14:43:00,
2013-07-10 09:53:00,67.0,56.0,29.93,North,360,6.0,14.0,68,0.00,,,0.42,,2013-07-10 14:53:00,
2013-07-10 10:01:00,68.0,57.0,29.93,NNW,331,7.0,15.0,68,0.00,,,0.42,,2013-07-10 15:01:00,
2013-07-10 10:11:00,68.0,57.0,29.94,West,268,7.0,19.0,68,0.00,,,0.42,,2013-07-10 15:11:00,
2013-07-10 10:22:00,68.0,57.0,29.93,NNW,339,7.0,15.0,68,0.00,,,0.42,,2013-07-10 15:22:00,
2013-07-10 10:34:00,69.0,57.0,29.94,NNW,343,8.0,17.0,66,0.00,,,0.42,,2013-07-10 15:34:00,
2013-07-10 10:42:00,69.0,57.0,29.93,WNW,298,10.0,17.0,65,0.00,,,0.42,,2013-07-10 15:42:00,
2013-07-10 10:52:00,69.0,56.0,29.94,NW,313,9.0,18.0,63,0.00,,,0.42,,2013-07-10 15:52:00,
2013-07-10 11:01:00,69.0,56.0,29.93,NNW,346,8.0,15.0,64,0.00,,,0.42,,2013-07-10 16:01:00,
2013-07-10 11:11:00,69.0,56.0,29.93,WNW,291,7.0,17.0,63,0.00,,,0.42,,2013-07-10 16:11:00,
2013-07-10 11:22:00,70.0,58.0,29.93,NNW,341,5.0,15.0,65,0.00,,,0.01,,2013-07-10 16:22:00,
2013-07-10 11:33:00,70.0,58.0,29.94,West,277,7.0,14.0,66,0.00,,,0.01,,2013-07-10 16:33:00,
2013-07-10 11:44:00,70.0,57.0,29.94,NNW,331,7.0,18.0,63,0.00,,,0.01,,2013-07-10 16:44:00,
2013-07-10 11:53:00,71.0,58.0,29.93,NNW,348,5.0,15.0,63,0.00,,,0.01,,2013-07-10 16:53:00,
2013-07-10 12:02:00,71.0,58.0,29.94,NW,312,6.0,14.0,64,0.00,,,0.01,,2013-07-10 17:02:00,
2013-07-10 12:11:00,71.0,56.0,29.94,NW,317,5.0,15.0,60,0.00,,,0.01,,2013-07-10 17:11:00,
2013-07-10 12:23:00,71.0,57.0,29.94,WNW,286,8.0,16.0,61,0.00,,,0.00,,2013-07-10 17:23:00,
2013-07-10 12:32:00,72.0,58.0,29.95,WNW,283,5.0,14.0,62,0.00,,,0.00,,2013-07-10 17:32:00,
2013-07-10 12:43:00,72.0,57.0,29.95,West,280,6.0,17.0,60,0.00,,,0.00,,2013-07-10 17:43:00,
2013-07-10 12:52:00,72.0,58.0,29.94,NE,47,5.0,20.0,61,0.00,,,0.00,,2013-07-10 17:52:00,
2013-07-10 13:02:00,72.0,57.0,29.94,NW,309,7.0,15.0,60,0.00,,,0.00,,2013-07-10 18:02:00,
2013-07-10 13:11:00,72.0,57.0,29.94,NW,314,5.0,12.0,59,0.00,,,0.00,,2013-07-10 18:11:00,
2013-07-10 13:22:00,73.0,58.0,29.94,WNW,302,5.0,14.0,59,0.00,,,0.00,,2013-07-10 18:22:00,
2013-07-10 13:32:00,72.0,57.0,29.95,WNW,296,5.0,14.0,59,0.00,,,0.00,,2013-07-10 18:32:00,
2013-07-10 13:44:00,73.0,57.0,29.95,NNW,335,5.0,11.0,57,0.00,,,0.00,,2013-07-10 18:44:00,
2013-07-10 13:52:00,72.0,56.0,29.95,NNE,15,4.0,11.0,57,0.00,,,0.00,,2013-07-10 18:52:00,
2013-07-10 14:01:00,73.0,57.0,29.95,NNW,331,6.0,15.0,58,0.00,,,0.00,,2013-07-10 19:01:00,
2013-07-10 14:11:00,72.0,56.0,29.95,NNW,348,5.0,11.0,58,0.00,,,0.00,,2013-07-10 19:11:00,
2013-07-10 14:21:00,74.0,58.0,29.95,NNW,340,5.0,10.0,57,0.00,,,0.00,,2013-07-10 19:21:00,
2013-07-10 14:32:00,73.0,56.0,29.96,NNE,30,3.0,12.0,55,0.00,,,0.00,,2013-07-10 19:32:00,
2013-07-10 14:42:00,73.0,57.0,29.96,WNW,291,5.0,12.0,58,0.00,,,0.00,,2013-07-10 19:42:00,
2013-07-10 14:52:00,74.0,57.0,29.96,NW,310,7.0,10.0,56,0.00,,,0.00,,2013-07-10 19:52:00,
2013-07-10 15:01:00,73.0,55.0,29.96,North,355,4.0,12.0,54,0.00,,,0.00,,2013-07-10 20:01:00,
2013-07-10 15:11:00,73.0,56.0,29.96,NW,321,3.0,10.0,55,0.00,,,0.00,,2013-07-10 20:11:00,
2013-07-10 15:22:00,74.0,57.0,29.96,NW,309,4.0,8.0,55,0.00,,,0.00,,2013-07-10 20:22:00,
2013-07-10 15:32:00,74.0,55.0,29.96,NNW,338,6.0,11.0,52,0.00,,,0.00,,2013-07-10 20:32:00,
2013-07-10 15:43:00,74.0,58.0,29.96,North,355,6.0,13.0,58,0.00,,,0.00,,2013-07-10 20:43:00,
2013-07-10 15:52:00,75.0,57.0,29.96,West,276,5.0,12.0,54,0.00,,,0.00,,2013-07-10 20:52:00,
2013-07-10 16:01:00,74.0,56.0,29.96,WNW,294,3.0,11.0,54,0.00,,,0.00,,2013-07-10 21:01:00,
2013-07-10 16:11:00,74.0,56.0,29.96,NNW,327,2.0,9.0,53,0.00,,,0.00,,2013-07-10 21:11:00,
2013-07-10 16:22:00,74.0,56.0,29.96,NW,313,3.0,10.0,53,0.00,,,0.00,,2013-07-10 21:22:00,
2013-07-10 16:32:00,74.0,55.0,29.95,NW,308,6.0,10.0,52,0.00,,,0.00,,2013-07-10 21:32:00,
2013-07-10 16:41:00,74.0,56.0,29.95,NW,318,2.0,10.0,54,0.00,,,0.00,,2013-07-10 21:41:00,
2013-07-10 16:52:00,75.0,57.0,29.95,NW,321,3.0,9.0,53,0.00,,,0.00,,2013-07-10 21:52:00,
2013-07-10 17:01:00,75.0,56.0,29.95,North,5,5.0,11.0,51,0.00,,,0.00,,2013-07-10 22:01:00,
2013-07-10 17:11:00,75.0,56.0,29.96,NW,311,6.0,10.0,51,0.00,,,0.00,,2013-07-10 22:11:00,
2013-07-10 17:21:00,75.0,57.0,29.96,WNW,298,3.0,8.0,53,0.00,,,0.00,,2013-07-10 22:21:00,
2013-07-10 17:33:00,76.0,55.0,29.96,North,5,4.0,12.0,49,0.00,,,0.00,,2013-07-10 22:33:00,
2013-07-10 17:42:00,75.0,56.0,29.96,West,278,5.0,11.0,51,0.00,,,0.00,,2013-07-10 22:42:00,
2013-07-10 17:53:00,74.0,55.0,29.96,NW,317,4.0,11.0,51,0.00,,,0.00,,2013-07-10 22:53:00,
2013-07-10 18:01:00,74.0,56.0,29.96,North,350,1.0,6.0,54,0.00,,,0.00,,2013-07-10 23:01:00,
2013-07-10 18:11:00,75.0,56.0,29.96,WNW,293,4.0,10.0,52,0.00,,,0.00,,2013-07-10 23:11:00,
2013-07-10 18:22:00,75.0,56.0,29.96,West,278,6.0,12.0,52,0.00,,,0.00,,2013-07-10 23:22:00,
2013-07-10 18:32:00,75.0,57.0,29.96,NNW,340,2.0,9.0,53,0.00,,,0.00,,2013-07-10 23:32:00,
2013-07-10 18:43:00,75.0,57.0,29.96,NNW,340,2.0,9.0,53,0.00,,,0.00,,2013-07-10 23:43:00,
2013-07-10 18:52:00,75.0,56.0,29.96,NW,313,2.0,7.0,52,0.00,,,0.00,,2013-07-10 23:52:00,
2013-07-10 19:01:00,75.0,56.0,29.96,WNW,282,4.0,7.0,51,0.00,,,0.00,,2013-07-11 00:01:00,
2013-07-10 19:11:00,74.0,56.0,29.96,NNW,344,3.0,11.0,53,0.00,,,0.00,,2013-07-11 00:11:00,
2013-07-10 19:22:00,74.0,56.0,29.96,NW,314,2.0,9.0,54,0.00,,,0.00,,2013-07-11 00:22:00,
2013-07-10 19:32:00,74.0,57.0,29.96,NW,304,1.0,9.0,55,0.00,,,0.00,,2013-07-11 00:32:00,
2013-07-10 19:42:00,74.0,57.0,29.96,NNW,333,2.0,6.0,55,0.00,,,0.00,,2013-07-11 00:42:00,
2013-07-10 19:52:00,73.0,56.0,29.96,NNW,338,3.0,7.0,56,0.00,,,0.00,,2013-07-11 00:52:00,
2013-07-10 20:01:00,73.0,56.0,29.96,NNW,347,2.0,5.0,55,0.00,,,0.00,,2013-07-11 01:01:00,
2013-07-10 20:11:00,73.0,56.0,29.97,North,355,1.0,7.0,56,0.00,,,0.00,,2013-07-11 01:11:00,
2013-07-10 20:22:00,73.0,57.0,29.97,NW,321,1.0,4.0,57,0.00,,,0.00,,2013-07-11 01:22:00,
2013-07-10 20:32:00,72.0,57.0,29.97,NW,320,0.0,2.0,60,0.00,,,0.00,,2013-07-11 01:32:00,
2013-07-10 20:43:00,72.0,58.0,29.97,NW,320,0.0,2.0,61,0.00,,,0.00,,2013-07-11 01:43:00,
2013-07-10 20:52:00,71.0,58.0,29.97,NW,320,0.0,1.0,63,0.00,,,0.00,,2013-07-11 01:52:00,
2013-07-10 21:02:00,69.0,56.0,29.97,NW,320,0.0,1.0,64,0.00,,,0.00,,2013-07-11 02:02:00,
2013-07-10 21:11:00,69.0,57.0,29.97,NW,320,0.0,0.0,66,0.00,,,0.00,,2013-07-11 02:11:00,
2013-07-10 21:22:00,68.0,57.0,29.98,NW,320,0.0,0.0,69,0.00,,,0.00,,2013-07-11 02:22:00,
2013-07-10 21:32:00,67.0,56.0,29.98,NW,320,0.0,0.0,69,0.00,,,0.00,,2013-07-11 02:32:00,
2013-07-10 21:43:00,66.0,57.0,29.98,NW,320,0.0,0.0,72,0.00,,,0.00,,2013-07-11 02:43:00,
2013-07-10 21:53:00,66.0,57.0,29.98,NW,320,0.0,0.0,73,0.00,,,0.00,,2013-07-11 02:53:00,
2013-07-10 22:01:00,65.0,56.0,29.98,NW,320,0.0,0.0,74,0.00,,,0.00,,2013-07-11 03:01:00,
2013-07-10 22:11:00,64.0,56.0,29.99,NW,320,0.0,0.0,74,0.00,,,0.00,,2013-07-11 03:11:00,
2013-07-10 22:21:00,64.0,56.0,29.99,NW,320,0.0,0.0,76,0.00,,,0.00,,2013-07-11 03:21:00,
2013-07-10 22:33:00,64.0,58.0,29.99,NW,320,0.0,0.0,80,0.00,,,0.00,,2013-07-11 03:33:00,
2013-07-10 22:42:00,63.0,57.0,29.99,NW,320,0.0,0.0,81,0.00,,,0.00,,2013-07-11 03:42:00,
2013-07-10 22:52:00,63.0,57.0,29.99,NW,320,0.0,0.0,82,0.00,,,0.00,,2013-07-11 03:52:00,
2013-07-10 23:01:00,63.0,57.0,29.99,NW,320,0.0,0.0,82,0.00,,,0.00,,2013-07-11 04:01:00,
2013-07-10 23:12:00,62.0,56.0,30.00,NW,320,0.0,0.0,82,0.00,,,0.00,,2013-07-11 04:12:00,
2013-07-10 23:22:00,61.0,56.0,30.00,NW,320,0.0,0.0,84,0.00,,,0.00,,2013-07-11 04:22:00,
2013-07-10 23:42:00,61.0,56.0,30.01,NW,320,0.0,0.0,85,0.00,,,0.00,,2013-07-11 04:42:00,
2013-07-10 23:53:00,60.0,56.0,30.01,NW,320,0.0,0.0,86,0.00,,,0.00,,2013-07-11 04:53:00,